User: anonymous   Login
Location: Fort Wayne
(41.1310°N, 85.1290°W)
Time: 19:47:26
(UTC-04:00)
Language:

Cosmos 2082 - Orbit

View from above orbital plane
View from above orbital plane
View from above satellite
View from above satellite

Ground track
Ground track

The orbit data is extracted from the following two-line orbital elements,

1 20624U 90046A   17227.89384353 -.00000293  00000-0 -12851-3 0  9991
2 20624  71.0385  89.6038 0017043 292.7795  67.1526 14.14226965405635
Epoch (UTC): 15 August 2017 21:27:08
Eccentricity: 0.0017043
inclination: 71.0385°
perigee height: 832 km
apogee height: 857 km
right ascension of ascending node: 89.6038°
argument of perigee: 292.7795°
revolutions per day: 14.14226965
mean anomaly at epoch: 67.1526°
orbit number at epoch: 40563

The dashed part of the orbit path shows where the satellite is in the earth's shadow,  

DLR